Weather History for Newark Heath, OH

Change the Weather History Date:

Thursday, November 15, 2012

  Actual Average Record
Temperature  
Mean Temperature 36 °F -  
Max Temperature 48 °F 50 °F 73 °F (1971)
Min Temperature 23 °F 33 °F 17 °F (1969)
Degree Days  
Heating Degree Days 30    
Moisture  
Dew Point 26 °F    
Average Humidity 73    
Maximum Humidity 88    
Minimum Humidity 44    
Precipitation  
Precipitation 0.00 in - - ()
Sea Level Pressure  
Sea Level Pressure 30.36 in    
Wind  
Wind Speed 1 mph (North)    
Max Wind Speed 5 mph    
Max Gust Speed -    
Visibility 8 miles    
Events      
Averages and records for this station are not official NWS values.
T = Trace of Precipitation, MM = Missing Value Source: NWS Daily Summary

Daily Weather History Graph

Daily Weather History Graph

Search for Another Location

Airport:

Trip Planner

Search our weather history database for the weather conditions in past years. The results will help you decide how hot, cold, wet, or windy it might be!

Date:

Astronomy

Nov. 15, 2012 Rise Set
Actual Time 7:15 AM EST 5:13 PM EST
Civil Twilight 6:46 AM EST 5:42 PM EST
Nautical Twilight 6:13 AM EST 6:14 PM EST
Astronomical Twilight 5:41 AM EST 6:46 PM EST
Moon 9:10 AM EST (11/15) 7:03 PM EST (11/15)
Length of Visible Light 10h 55m
Length of Day
9h 57m
Waxing Crescent, 5% of the Moon is Illuminated
Nov 15
Waxing Crescent
Nov 20
First Quarter
Nov 28
Full
Dec 6
Last Quarter
Dec 13
New

Hourly Weather History & Observations

Time (EST) Temp. Windchill Dew Point Humidity Pressure Visibility Wind Dir Wind Speed Gust Speed Precip Events Conditions
12:54 AM 28.9 °F 25.2 °F 24.1 °F 82% 30.39 in 9.0 mi NNW 3.5 mph - N/A   Clear
1:54 AM 28.0 °F - 23.0 °F 81% 30.37 in 9.0 mi Calm Calm - N/A   Clear
2:54 AM 27.0 °F - 23.0 °F 85% 30.36 in 8.0 mi Calm Calm - N/A   Clear
3:54 AM 26.1 °F - 21.9 °F 84% 30.35 in 7.0 mi Calm Calm - N/A   Clear
4:54 AM 25.0 °F - 21.0 °F 85% 30.35 in 6.0 mi Calm Calm - N/A   Clear
5:54 AM 23.0 °F - 19.9 °F 88% 30.37 in 5.0 mi Calm Calm - N/A   Clear
6:54 AM 23.0 °F - 19.9 °F 88% 30.39 in 4.0 mi Calm Calm - N/A   Clear
7:54 AM 25.0 °F - 21.9 °F 88% 30.40 in 3.0 mi Calm Calm - N/A   Clear
8:54 AM 32.0 °F 27.5 °F 26.1 °F 79% 30.38 in 6.0 mi North 4.6 mph - N/A   Haze
9:54 AM 37.0 °F 33.3 °F 28.0 °F 70% 30.37 in 8.0 mi East 4.6 mph - N/A   Clear
10:54 AM 41.0 °F 39.0 °F 28.0 °F 60% 30.37 in 10.0 mi ENE 3.5 mph - N/A   Clear
11:54 AM 45.0 °F 43.5 °F 28.9 °F 53% 30.36 in 10.0 mi Variable 3.5 mph - N/A   Clear
12:54 PM 45.0 °F - 28.9 °F 53% 30.35 in 10.0 mi Calm Calm - N/A   Clear
1:54 PM 46.9 °F - 28.9 °F 50% 30.32 in 10.0 mi Calm Calm - N/A   Clear
2:54 PM 48.0 °F - 28.9 °F 48% 30.32 in 10.0 mi WSW 3.5 mph - N/A   Clear
3:54 PM 48.9 °F - 28.0 °F 44% 30.32 in 10.0 mi North 3.5 mph - N/A   Clear
4:54 PM 45.0 °F 43.5 °F 27.0 °F 49% 30.32 in 10.0 mi North 3.5 mph - N/A   Clear
5:54 PM 39.9 °F - 30.0 °F 68% 30.32 in 10.0 mi Calm Calm - N/A   Clear
6:54 PM 35.1 °F - 28.0 °F 76% 30.34 in 10.0 mi Calm Calm - N/A   Clear
7:54 PM 34.0 °F - 28.0 °F 79% 30.34 in 10.0 mi Calm Calm - N/A   Clear
8:54 PM 33.1 °F - 28.0 °F 82% 30.35 in 9.0 mi Calm Calm - N/A   Clear
9:54 PM 33.1 °F - 28.0 °F 82% 30.36 in 10.0 mi Calm Calm - N/A   Clear
10:54 PM 30.0 °F - 26.1 °F 85% 30.36 in 8.0 mi Calm Calm - N/A   Clear
11:54 PM 30.9 °F - 27.0 °F 85% 30.36 in 8.0 mi Calm Calm - N/A   Clear